�v������,��1(���x),�����t���O,��2���x),�����t���O,�������x,�����t���O,�C�ۑ�(���x),�����t���O,�C�ۑ�(���x),�����t���O
11/1/2003 0:00,22.8,0,21,0,18.6,0,16.1,0,80.8,0
11/1/2003 0:15,22.8,0,21,0,18.8,0,16,0,80.8,0
11/1/2003 0:30,22.8,0,21,0,18.8,0,16,0,80.8,0
11/1/2003 0:45,22.8,0,21,0,18.8,0,15.9,0,80.8,0
11/1/2003 1:00,22.8,0,21,0,18.9,0,15.9,0,80.8,0
11/1/2003 1:15,22.7,0,21,0,18.9,0,15.8,0,81.1,0
11/1/2003 1:30,22.8,0,21,0,19,0,15.7,0,81.3,0
11/1/2003 1:45,22.8,0,21,0,19.1,0,15.7,0,81.6,0
11/1/2003 2:00,22.8,0,21,0,19.1,0,15.6,0,81.8,0
11/1/2003 2:15,22.8,0,21,0,19.2,0,15.5,0,82.1,0
11/1/2003 2:30,22.8,0,21,0,19.3,0,15.4,0,82.3,0
11/1/2003 2:45,22.7,0,21,0,19.4,0,15.4,0,82.6,0
11/1/2003 3:00,22.7,0,21,0,19.5,0,15.3,0,82.8,0
11/1/2003 3:15,22.7,0,21,0,19.6,0,15.2,0,83.3,0
11/1/2003 3:30,22.7,0,21,0,19.8,0,15.1,0,83.8,0
11/1/2003 3:45,22.7,0,21,0,19.9,0,15.1,0,84.3,0
11/1/2003 4:00,22.7,0,21,0,20,0,15,0,84.8,0
11/1/2003 4:15,22.7,0,21,0,20.2,0,15,0,84.6,0
11/1/2003 4:30,22.7,0,21,0,20.3,0,15,0,84.3,0
11/1/2003 4:45,22.7,0,21,0,20.5,0,15,0,84.1,0
11/1/2003 5:00,22.7,0,21,0,20.6,0,15,0,83.8,0
11/1/2003 5:15,22.7,0,21,0,20.7,0,15,0,83.3,0
11/1/2003 5:30,22.7,0,21,0,20.8,0,15.1,0,82.8,0
11/1/2003 5:45,22.7,0,21,0,21,0,15.1,0,82.3,0
11/1/2003 6:00,22.7,0,21,0,21.1,0,15.2,0,81.8,0
11/1/2003 6:15,22.7,0,21,0,21.2,0,15.2,0,81.6,0
11/1/2003 6:30,22.6,0,21,0,19.1,0,15.3,0,81.3,0
11/1/2003 6:45,22.6,0,20.8,0,18.6,0,15.3,0,81.1,0
11/1/2003 7:00,22.6,0,20.5,0,18.6,0,15.4,0,80.8,0
11/1/2003 7:15,22.5,0,20.5,0,18.8,0,15.4,0,82.1,0
11/1/2003 7:30,22.4,0,20.6,0,18.9,0,15.3,0,83.3,0
11/1/2003 7:45,22.3,0,20.6,0,18.9,0,15.3,0,84.6,0
11/1/2003 8:00,22.3,0,20.6,0,18.9,0,15.3,0,85.8,0
11/1/2003 8:15,22.3,0,20.7,0,18.6,0,15.5,0,84.6,0
11/1/2003 8:30,22.3,0,20.7,0,18.7,0,15.8,0,83.3,0
11/1/2003 8:45,22.2,0,20.7,0,18.7,0,16,0,82.1,0
11/1/2003 9:00,22.2,0,20.8,0,18.7,0,16.3,0,80.8,0
11/1/2003 9:15,22.4,0,20.9,0,18.8,0,16.4,0,80.6,0
11/1/2003 9:30,22.6,0,20.9,0,18.8,0,16.6,0,80.3,0
11/1/2003 9:45,22.6,0,20.9,0,18.8,0,16.7,0,80.1,0
11/1/2003 10:00,22.5,0,20.9,0,18.9,0,16.9,0,79.8,0
11/1/2003 10:15,22.4,0,20.9,0,18.9,0,17,0,80.6,0
11/1/2003 10:30,22.5,0,20.9,0,19.5,0,17.2,0,81.3,0
11/1/2003 10:45,22.5,0,20.9,0,18.8,0,17.3,0,82.1,0
11/1/2003 11:00,22.4,0,20.9,0,18.9,0,17.5,0,82.8,0
11/1/2003 11:15,22.4,0,20.9,0,18.9,0,17.5,0,82.8,0
11/1/2003 11:30,22.4,0,20.9,0,18.9,0,17.6,0,82.8,0
11/1/2003 11:45,22.3,0,21,0,19,0,17.6,0,82.8,0
11/1/2003 12:00,22.3,0,21,0,19,0,17.7,0,82.8,0
11/1/2003 12:15,22.3,0,21,0,19,0,18,0,82.8,0
11/1/2003 12:30,22.3,0,21,0,19.1,0,18.2,0,82.8,0
11/1/2003 12:45,22.3,0,21,0,19.1,0,18.5,0,82.8,0
11/1/2003 13:00,22.3,0,21,0,19.1,0,18.8,0,82.8,0
11/1/2003 13:15,22.3,0,21,0,19.2,0,19,0,82.3,0
11/1/2003 13:30,22.3,0,21,0,19.2,0,19.1,0,81.8,0
11/1/2003 13:45,22.3,0,21,0,19.3,0,19.3,0,81.3,0
11/1/2003 14:00,22.3,0,21,0,19.3,0,19.5,0,80.8,0
11/1/2003 14:15,22.3,0,21,0,19.3,0,19.5,0,81.1,0
11/1/2003 14:30,22.3,0,21.1,0,19.4,0,19.4,0,81.3,0
11/1/2003 14:45,22.3,0,21,0,19.4,0,19.4,0,81.6,0
11/1/2003 15:00,22.3,0,21,0,19.4,0,19.4,0,81.8,0
11/1/2003 15:15,22.3,0,21,0,19.5,0,19.5,0,82.1,0
11/1/2003 15:30,22.2,0,21,0,19.5,0,19.5,0,82.3,0
11/1/2003 15:45,22.2,0,21,0,19.5,0,19.6,0,82.6,0
11/1/2003 16:00,22.2,0,21,0,18.9,0,19.7,0,82.8,0
11/1/2003 16:15,22.2,0,21,0,18.9,0,19.7,0,83.1,0
11/1/2003 16:30,22.2,0,21,0,18.9,0,19.7,0,83.3,0
11/1/2003 16:45,22.2,0,21,0,19,0,19.7,0,83.6,0
11/1/2003 17:00,22.2,0,21,0,19,0,19.7,0,83.8,0
11/1/2003 17:15,22.1,0,21.1,0,19,0,20,0,83.6,0
11/1/2003 17:30,22.1,0,21.3,0,19,0,20.2,0,83.3,0
11/1/2003 17:45,22.2,0,21.4,0,19,0,20.5,0,83.1,0
11/1/2003 18:00,22.2,0,21.5,0,19.1,0,20.8,0,82.8,0
11/1/2003 18:15,22.2,0,21.5,0,19.1,0,20.6,0,82.8,0
11/1/2003 18:30,22.2,0,21.6,0,18.8,0,20.5,0,82.8,0
11/1/2003 18:45,22.2,0,21.6,0,18.8,0,20.3,0,82.8,0
11/1/2003 19:00,22.2,0,21.5,0,18.9,0,20.2,0,82.8,0
11/1/2003 19:15,22.2,0,21.4,0,18.9,0,20.2,0,83.3,0
11/1/2003 19:30,22.3,0,21.3,0,18.6,0,20.2,0,83.8,0
11/1/2003 19:45,22.3,0,21.3,0,18.7,0,20.3,0,84.3,0
11/1/2003 20:00,22.3,0,21.2,0,18.7,0,20.3,0,84.8,0
11/1/2003 20:15,22.4,0,21.2,0,18.7,0,20.3,0,85.8,0
11/1/2003 20:30,22.4,0,21.2,0,18.8,0,20.4,0,86.8,0
11/1/2003 20:45,22.3,0,21.2,0,18.8,0,20.4,0,87.8,0
11/1/2003 21:00,22.3,0,21.2,0,18.9,0,20.5,0,88.8,0
11/1/2003 21:15,22.3,0,21.1,0,18.9,0,20.2,0,89.6,0
11/1/2003 21:30,22.3,0,21.1,0,18.9,0,20,0,90.3,0
11/1/2003 21:45,22.3,0,21.1,0,18.9,0,19.7,0,91.1,0
11/1/2003 22:00,22.3,0,21.1,0,19.1,0,19.5,0,91.8,0
11/1/2003 22:15,22.3,0,21.1,0,18.6,0,19.1,0,91.3,0
11/1/2003 22:30,22.3,0,21.1,0,18.7,0,18.7,0,90.8,0
11/1/2003 22:45,22.3,0,21.1,0,18.7,0,18.3,0,90.3,0
11/1/2003 23:00,22.3,0,21.1,0,18.8,0,17.9,0,89.8,0
11/1/2003 23:15,22.4,0,21.1,0,18.6,0,17.7,0,90.1,0
11/1/2003 23:30,22.4,0,21.1,0,18.5,0,17.6,0,90.3,0
11/1/2003 23:45,22.4,0,21.1,0,18.5,0,17.4,0,90.6,0
11/2/2003 0:00,22.4,0,21.1,0,18.6,0,17.3,0,90.8,0
11/2/2003 0:15,22.4,0,21.1,0,18.6,0,17.2,0,90.8,0
11/2/2003 0:30,22.4,0,21.1,0,18.6,0,17,0,90.8,0
11/2/2003 0:45,22.4,0,21.1,0,18.5,0,16.9,0,90.8,0
11/2/2003 1:00,22.4,0,21.1,0,18.6,0,16.8,0,90.8,0
11/2/2003 1:15,22.4,0,21.1,0,18.6,0,16.7,0,90.6,0
11/2/2003 1:30,22.4,0,21.1,0,18.7,0,16.7,0,90.3,0
11/2/2003 1:45,22.4,0,21.1,0,18.7,0,16.6,0,90.1,0
11/2/2003 2:00,22.4,0,21.1,0,18.8,0,16.6,0,89.8,0
11/2/2003 2:15,22.5,0,21.1,0,18.8,0,16.5,0,89.6,0
11/2/2003 2:30,22.5,0,21.1,0,18.8,0,16.4,0,89.3,0
11/2/2003 2:45,22.5,0,21.1,0,18.9,0,16.3,0,89.1,0
11/2/2003 3:00,22.5,0,21.1,0,18.9,0,16.2,0,88.8,0
11/2/2003 3:15,22.5,0,21.1,0,19,0,16.1,0,88.3,0
11/2/2003 3:30,22.5,0,21.1,0,19,0,16.1,0,87.8,0
11/2/2003 3:45,22.4,0,21.1,0,19.1,0,16,0,87.3,0
11/2/2003 4:00,22.4,0,21.1,0,19.1,0,16,0,86.8,0
11/2/2003 4:15,22.4,0,21,0,19.2,0,15.9,0,87.3,0
11/2/2003 4:30,22.4,0,21,0,19.2,0,15.8,0,87.8,0
11/2/2003 4:45,22.4,0,21,0,19.2,0,15.7,0,88.3,0
11/2/2003 5:00,22.4,0,21,0,19.3,0,15.6,0,88.8,0
11/2/2003 5:15,22.4,0,21,0,19.3,0,15.5,0,88.1,0
11/2/2003 5:30,22.3,0,21,0,19.4,0,15.4,0,87.3,0
11/2/2003 5:45,22.3,0,20.9,0,19.4,0,15.4,0,86.6,0
11/2/2003 6:00,22.3,0,20.9,0,19.5,0,15.3,0,85.8,0
11/2/2003 6:15,22.3,0,20.9,0,19.5,0,15.3,0,85.1,0
11/2/2003 6:30,22.3,0,20.9,0,19.3,0,15.4,0,84.3,0
11/2/2003 6:45,22.3,0,20.9,0,18.9,0,15.4,0,83.6,0
11/2/2003 7:00,22.3,0,20.9,0,18.9,0,15.5,0,82.8,0
11/2/2003 7:15,22.3,0,20.9,0,18.9,0,15.9,0,81.3,0
11/2/2003 7:30,22.2,0,20.9,0,19.2,0,16.4,0,79.8,0
11/2/2003 7:45,21.8,0,20.8,0,19.2,0,16.8,0,78.3,0
11/2/2003 8:00,21.7,0,20.8,0,19.2,0,17.3,0,76.8,0
11/2/2003 8:15,21.7,0,20.8,0,19.3,0,17.6,0,75.6,0
11/2/2003 8:30,21.7,0,20.9,0,19.3,0,17.9,0,74.3,0
11/2/2003 8:45,21.7,0,20.8,0,19.4,0,18.3,0,73.1,0
11/2/2003 9:00,21.8,0,20.8,0,19.4,0,18.6,0,71.8,0
11/2/2003 9:15,22.1,0,20.9,0,19.5,0,19.1,0,69.6,0
11/2/2003 9:30,22.3,0,20.9,0,19.5,0,19.5,0,67.3,0
11/2/2003 9:45,22.4,0,20.9,0,18.9,0,20,0,65.1,0
11/2/2003 10:00,22.6,0,21,0,18.9,0,20.5,0,62.8,0
11/2/2003 10:15,22.7,0,21,0,18.9,0,20.6,0,63,0
11/2/2003 10:30,22.8,0,21,0,19,0,20.7,0,63.3,0
11/2/2003 10:45,22.8,0,21.1,0,19,0,20.9,0,63.5,0
11/2/2003 11:00,22.9,0,21.1,0,19,0,21,0,63.8,0
11/2/2003 11:15,22.9,0,21.1,0,19.1,0,20.8,0,64.3,0
11/2/2003 11:30,22.9,0,21.1,0,19.1,0,20.6,0,64.8,0
11/2/2003 11:45,23,0,21.2,0,19.1,0,20.5,0,65.3,0
11/2/2003 12:00,23,0,21.2,0,19.2,0,20.3,0,65.8,0
11/2/2003 12:15,23,0,21.3,0,19.2,0,20.6,0,65.3,0
11/2/2003 12:30,23.1,0,21.3,0,19.3,0,20.9,0,64.8,0
11/2/2003 12:45,23.1,0,21.3,0,19.3,0,21.3,0,64.3,0
11/2/2003 13:00,23.1,0,21.4,0,19.3,0,21.6,0,63.8,0
11/2/2003 13:15,23.1,0,21.4,0,19.4,0,21.7,0,62.8,0
11/2/2003 13:30,23,0,21.4,0,19.4,0,21.8,0,61.8,0
11/2/2003 13:45,23,0,21.4,0,19.5,0,21.9,0,60.8,0
11/2/2003 14:00,23,0,21.4,0,19.5,0,22,0,59.8,0
11/2/2003 14:15,23,0,21.4,0,19.5,0,21.8,0,60.5,0
11/2/2003 14:30,23,0,21.4,0,19.6,0,21.7,0,61.3,0
11/2/2003 14:45,23,0,21.4,0,19.6,0,21.5,0,62,0
11/2/2003 15:00,22.9,0,21.4,0,19.7,0,21.4,0,62.8,0
11/2/2003 15:15,22.9,0,21.4,0,19.7,0,21.3,0,63.6,0
11/2/2003 15:30,22.9,0,21.4,0,19.7,0,21.2,0,64.3,0
11/2/2003 15:45,22.8,0,21.4,0,19.8,0,21.1,0,65.1,0
11/2/2003 16:00,22.8,0,21.4,0,19.8,0,21,0,65.8,0
11/2/2003 16:15,22.8,0,21.4,0,19.8,0,20.8,0,67.6,0
11/2/2003 16:30,22.8,0,21.4,0,19.9,0,20.6,0,69.3,0
11/2/2003 16:45,22.8,0,21.4,0,19.9,0,20.5,0,71.1,0
11/2/2003 17:00,22.7,0,21.4,0,20,0,20.3,0,72.8,0
11/2/2003 17:15,22.7,0,21.4,0,20,0,20.3,0,74.6,0
11/2/2003 17:30,22.7,0,21.4,0,20,0,20.2,0,76.3,0
11/2/2003 17:45,22.7,0,21.4,0,19.4,0,20.2,0,78.1,0
11/2/2003 18:00,22.5,0,21.4,0,19.4,0,20.2,0,79.8,0
11/2/2003 18:15,22.5,0,21.4,0,19.4,0,19.9,0,80.8,0
11/2/2003 18:30,22.4,0,21.4,0,18.8,0,19.7,0,81.8,0
11/2/2003 18:45,22.3,0,21.4,0,18.9,0,19.4,0,82.8,0
11/2/2003 19:00,22.3,0,21.4,0,18.9,0,19.2,0,83.8,0
11/2/2003 19:15,22.3,0,21.4,0,18.9,0,18.9,0,84.8,0
11/2/2003 19:30,22.4,0,21.4,0,19,0,18.7,0,85.8,0
11/2/2003 19:45,22.5,0,21.4,0,19,0,18.4,0,86.8,0
11/2/2003 20:00,22.6,0,21.4,0,19.1,0,18.2,0,87.8,0
11/2/2003 20:15,22.6,0,21.4,0,19.1,0,18.1,0,88.3,0
11/2/2003 20:30,22.6,0,21.4,0,19.1,0,17.9,0,88.8,0
11/2/2003 20:45,22.6,0,21.4,0,19.2,0,17.8,0,89.3,0
11/2/2003 21:00,22.6,0,21.4,0,19.2,0,17.7,0,89.8,0
11/2/2003 21:15,22.6,0,21.4,0,19.3,0,17.7,0,89.8,0
11/2/2003 21:30,22.7,0,21.4,0,18.8,0,17.6,0,89.8,0
11/2/2003 21:45,22.7,0,21.4,0,18.5,0,17.6,0,89.8,0
11/2/2003 22:00,22.8,0,21.4,0,18.5,0,17.6,0,89.8,0
11/2/2003 22:15,22.8,0,21.4,0,18.6,0,17.5,0,89.6,0
11/2/2003 22:30,22.9,0,21.4,0,18.6,0,17.5,0,89.3,0
11/2/2003 22:45,23,0,21.4,0,18.9,0,17.4,0,89.1,0
11/2/2003 23:00,23,0,21.4,0,18.4,0,17.4,0,88.8,0
11/2/2003 23:15,23,0,21.4,0,18.5,0,17.2,0,89.3,0
11/2/2003 23:30,22.9,0,21.4,0,18.5,0,17,0,89.8,0
11/2/2003 23:45,22.9,0,21.4,0,18.5,0,16.8,0,90.3,0
11/3/2003 0:00,22.8,0,21.4,0,18.6,0,16.6,0,90.8,0
11/3/2003 0:15,22.8,0,21.4,0,18.6,0,16.3,0,92.1,0
11/3/2003 0:30,22.8,0,21.4,0,18.7,0,16,0,93.3,0
11/3/2003 0:45,22.8,0,21.4,0,18.7,0,15.8,0,94.6,0
11/3/2003 1:00,22.8,0,21.4,0,18.8,0,15.5,0,95.8,0
11/3/2003 1:15,22.8,0,21.3,0,18.8,0,15.3,0,95.6,0
11/3/2003 1:30,22.8,0,21.3,0,19.2,0,15.2,0,95.3,0
11/3/2003 1:45,22.8,0,21.3,0,19.2,0,15,0,95.1,0
11/3/2003 2:00,22.8,0,21.3,0,19.2,0,14.9,0,94.8,0
11/3/2003 2:15,22.8,0,21.3,0,19.2,0,14.8,0,95.1,0
11/3/2003 2:30,22.8,0,21.3,0,19.3,0,14.8,0,95.3,0
11/3/2003 2:45,22.8,0,21.3,0,19.3,0,14.7,0,95.6,0
11/3/2003 3:00,22.8,0,21.3,0,19.3,0,14.7,0,95.8,0
11/3/2003 3:15,22.8,0,21.3,0,19.4,0,14.7,0,96.1,0
11/3/2003 3:30,22.8,0,21.3,0,19.4,0,14.6,0,96.3,0
11/3/2003 3:45,22.8,0,21.3,0,19.4,0,14.6,0,96.6,0
11/3/2003 4:00,22.7,0,21.3,0,19.5,0,14.6,0,96.8,0
11/3/2003 4:15,22.7,0,21.3,0,19.5,0,14.5,0,96.8,0
11/3/2003 4:30,22.7,0,21.2,0,19.5,0,14.4,0,96.8,0
11/3/2003 4:45,22.7,0,21.2,0,19.6,0,14.4,0,96.8,0
11/3/2003 5:00,22.7,0,21.2,0,19.6,0,14.3,0,96.8,0
11/3/2003 5:15,22.6,0,21.2,0,19.6,0,14.3,0,96.8,0
11/3/2003 5:30,22.6,0,21.2,0,19.7,0,14.3,0,96.8,0
11/3/2003 5:45,22.6,0,21.2,0,19.7,0,14.3,0,96.8,0
11/3/2003 6:00,22.6,0,21.2,0,19.7,0,14.3,0,96.8,0
11/3/2003 6:15,22.6,0,21.2,0,19.8,0,14.3,0,96.6,0
11/3/2003 6:30,22.5,0,21.2,0,18.8,0,14.4,0,96.3,0
11/3/2003 6:45,22.5,0,21.2,0,18.8,0,14.4,0,96.1,0
11/3/2003 7:00,22.4,0,21.2,0,18.8,0,14.5,0,95.8,0
11/3/2003 7:15,22.4,0,21.2,0,19,0,14.8,0,94.8,0
11/3/2003 7:30,22.3,0,21.2,0,18.8,0,15,0,93.8,0
11/3/2003 7:45,22.3,0,21.1,0,18.8,0,15.3,0,92.8,0
11/3/2003 8:00,22.3,0,21.1,0,18.8,0,15.6,0,91.8,0
11/3/2003 8:15,22.3,0,21.1,0,18.9,0,15.8,0,91.1,0
11/3/2003 8:30,22.3,0,21.1,0,18.9,0,16,0,90.3,0
11/3/2003 8:45,22.3,0,21.1,0,18.9,0,16.2,0,89.6,0
11/3/2003 9:00,22.2,0,21.1,0,18.9,0,16.4,0,88.8,0
11/3/2003 9:15,22.2,0,21.1,0,18.9,0,16.8,0,88.6,0
11/3/2003 9:30,22.2,0,21.1,0,18.9,0,17.3,0,88.3,0
11/3/2003 9:45,22.2,0,21.1,0,18.9,0,17.7,0,88.1,0
11/3/2003 10:00,22.2,0,21.2,0,19,0,18.2,0,87.8,0
11/3/2003 10:15,22.2,0,21.2,0,19,0,18.6,0,86.8,0
11/3/2003 10:30,22.2,0,21.2,0,19.1,0,19,0,85.8,0
11/3/2003 10:45,22.2,0,21.2,0,19.1,0,19.4,0,84.8,0
11/3/2003 11:00,22.2,0,21.2,0,19.1,0,19.8,0,83.8,0
11/3/2003 11:15,22.2,0,21.2,0,19.2,0,19.6,0,84.8,0
11/3/2003 11:30,22.2,0,21.2,0,19.2,0,19.5,0,85.8,0
11/3/2003 11:45,22.2,0,21.2,0,19.2,0,19.3,0,86.8,0
11/3/2003 12:00,22.2,0,21.2,0,19.3,0,19.2,0,87.8,0
11/3/2003 12:15,22.2,0,21.2,0,19.3,0,19.3,0,88.1,0
11/3/2003 12:30,22.2,0,21.2,0,19,0,19.3,0,88.3,0
11/3/2003 12:45,22.1,0,21.2,0,19,0,19.4,0,88.6,0
11/3/2003 13:00,22.1,0,21.2,0,19,0,19.5,0,88.8,0
11/3/2003 13:15,22.2,0,21.2,0,19.1,0,20,0,88.8,0
11/3/2003 13:30,22.2,0,21.2,0,19.1,0,20.4,0,88.8,0
11/3/2003 13:45,22.2,0,21.2,0,19.1,0,20.9,0,88.8,0
11/3/2003 14:00,22.2,0,21.2,0,19.2,0,21.4,0,88.8,0
11/3/2003 14:15,22.2,0,21.2,0,19.2,0,21.5,0,87.8,0
11/3/2003 14:30,22.2,0,21.3,0,19.2,0,21.6,0,86.8,0
11/3/2003 14:45,22.2,0,21.4,0,19.3,0,21.8,0,85.8,0
11/3/2003 15:00,22.2,0,21.4,0,19.3,0,21.9,0,84.8,0
11/3/2003 15:15,22.2,0,21.5,0,19.3,0,21.6,0,86.6,0
11/3/2003 15:30,22.2,0,21.5,0,19.4,0,21.3,0,88.3,0
11/3/2003 15:45,22.2,0,21.6,0,19.4,0,21.1,0,90.1,0
11/3/2003 16:00,22.2,0,21.6,0,19.4,0,20.8,0,91.8,0
11/3/2003 16:15,22.3,0,21.6,0,19.5,0,20.9,0,91.3,0
11/3/2003 16:30,22.3,0,21.7,0,19.5,0,21,0,90.8,0
11/3/2003 16:45,22.3,0,21.7,0,19.5,0,21.1,0,90.3,0
11/3/2003 17:00,22.4,0,21.7,0,19.6,0,21.2,0,89.8,0
11/3/2003 17:15,22.5,0,21.6,0,18.9,0,21.2,0,89.3,0
11/3/2003 17:30,22.6,0,21.6,0,18.7,0,21.3,0,88.8,0
11/3/2003 17:45,22.6,0,21.6,0,18.8,0,21.3,0,88.3,0
11/3/2003 18:00,22.5,0,21.6,0,18.8,0,21.4,0,87.8,0
11/3/2003 18:15,22.5,0,21.6,0,18.8,0,21.4,0,87.8,0
11/3/2003 18:30,22.5,0,21.6,0,18.9,0,21.5,0,87.8,0
11/3/2003 18:45,22.5,0,21.6,0,18.9,0,21.5,0,87.8,0
11/3/2003 19:00,22.5,0,21.6,0,19,0,21.6,0,87.8,0
11/3/2003 19:15,22.6,0,21.6,0,19,0,21.6,0,87.3,0
11/3/2003 19:30,22.6,0,21.6,0,19.1,0,21.5,0,86.8,0
11/3/2003 19:45,22.6,0,21.6,0,19.1,0,21.5,0,86.3,0
11/3/2003 20:00,22.6,0,21.6,0,19.1,0,21.5,0,85.8,0
11/3/2003 20:15,22.6,0,21.6,0,19.2,0,21.5,0,86.6,0
11/3/2003 20:30,22.6,0,21.6,0,19.2,0,21.4,0,87.3,0
11/3/2003 20:45,22.6,0,21.5,0,18.8,0,21.4,0,88.1,0
11/3/2003 21:00,22.7,0,21.5,0,18.8,0,21.4,0,88.8,0
11/3/2003 21:15,22.7,0,21.5,0,18.8,0,21.4,0,88.1,0
11/3/2003 21:30,22.7,0,21.6,0,18.9,0,21.4,0,87.3,0
11/3/2003 21:45,22.7,0,21.6,0,18.9,0,21.4,0,86.6,0
11/3/2003 22:00,22.8,0,21.6,0,19,0,21.4,0,85.8,0
11/3/2003 22:15,22.9,0,21.6,0,19,0,21.1,0,87.3,0
11/3/2003 22:30,22.9,0,21.5,0,19,0,20.9,0,88.8,0
11/3/2003 22:45,22.9,0,21.5,0,18.9,0,20.6,0,90.3,0
11/3/2003 23:00,22.9,0,21.7,0,18.9,0,20.4,0,91.8,0
11/3/2003 23:15,22.9,0,21.8,0,18.9,0,20,0,91.1,0
11/3/2003 23:30,22.9,0,21.9,0,19,0,19.6,0,90.3,0
11/3/2003 23:45,22.9,0,21.9,0,19,0,19.2,0,89.6,0
11/4/2003 0:00,22.8,0,22,0,19.1,0,18.8,0,88.8,0
11/4/2003 0:15,22.8,0,22,0,19.3,0,18.7,0,88.1,0
11/4/2003 0:30,22.8,0,21.9,0,18.8,0,18.6,0,87.3,0
11/4/2003 0:45,22.8,0,21.9,0,18.9,0,18.5,0,86.6,0
11/4/2003 1:00,22.8,0,21.8,0,18.9,0,18.4,0,85.8,0
11/4/2003 1:15,22.8,0,21.8,0,19,0,18.4,0,85.8,0
11/4/2003 1:30,22.8,0,21.7,0,19,0,18.4,0,85.8,0
11/4/2003 1:45,22.8,0,21.7,0,19,0,18.4,0,85.8,0
11/4/2003 2:00,22.8,0,21.7,0,19.1,0,18.4,0,85.8,0
11/4/2003 2:15,22.8,0,21.7,0,19.1,0,18.3,0,85.8,0
11/4/2003 2:30,22.8,0,21.6,0,19.1,0,18.2,0,85.8,0
11/4/2003 2:45,22.8,0,21.6,0,19.2,0,18.2,0,85.8,0
11/4/2003 3:00,22.8,0,21.6,0,19.2,0,18.1,0,85.8,0
11/4/2003 3:15,22.8,0,21.6,0,19.3,0,18,0,86.3,0
11/4/2003 3:30,22.8,0,21.6,0,19.3,0,18,0,86.8,0
11/4/2003 3:45,22.8,0,21.6,0,19.4,0,17.9,0,87.3,0
11/4/2003 4:00,22.8,0,21.6,0,19.4,0,17.9,0,87.8,0
11/4/2003 4:15,22.8,0,21.6,0,19.4,0,17.9,0,87.8,0
11/4/2003 4:30,22.8,0,21.6,0,19.5,0,17.8,0,87.8,0
11/4/2003 4:45,22.8,0,21.6,0,19.5,0,17.8,0,87.8,0
11/4/2003 5:00,22.8,0,21.6,0,19.5,0,17.8,0,87.8,0
11/4/2003 5:15,22.8,0,21.6,0,19.6,0,17.8,0,88.1,0
11/4/2003 5:30,22.8,0,21.5,0,19.6,0,17.8,0,88.3,0
11/4/2003 5:45,22.8,0,21.5,0,19.7,0,17.8,0,88.6,0
11/4/2003 6:00,22.8,0,21.5,0,19.7,0,17.8,0,88.8,0
11/4/2003 6:15,22.8,0,21.5,0,19.7,0,18.1,0,85.3,0
11/4/2003 6:30,22.8,0,21.5,0,19.8,0,18.4,0,81.8,0
11/4/2003 6:45,22.8,0,21.5,0,19.8,0,18.7,0,78.3,0
11/4/2003 7:00,22.8,0,21.5,0,19.4,0,19,0,74.8,0
11/4/2003 7:15,22.8,0,21.6,0,18.8,0,19.1,0,74.3,0
11/4/2003 7:30,22.7,0,21.5,0,18.8,0,19.1,0,73.8,0
11/4/2003 7:45,22.7,0,21.5,0,18.8,0,19.2,0,73.3,0
11/4/2003 8:00,22.7,0,21.5,0,18.9,0,19.3,0,72.8,0
11/4/2003 8:15,22.7,0,21.5,0,18.9,0,19.3,0,74.6,0
11/4/2003 8:30,22.7,0,21.5,0,19,0,19.3,0,76.3,0
11/4/2003 8:45,22.7,0,21.5,0,19.1,0,19.3,0,78.1,0
11/4/2003 9:00,22.7,0,21.5,0,19.1,0,19.3,0,79.8,0
11/4/2003 9:15,22.7,0,21.5,0,18.8,0,19.6,0,77.1,0
11/4/2003 9:30,22.8,0,21.6,0,18.8,0,19.9,0,74.3,0
11/4/2003 9:45,22.8,0,21.6,0,18.8,0,20.2,0,71.6,0
11/4/2003 10:00,22.8,0,21.6,0,18.9,0,20.5,0,68.8,0
11/4/2003 10:15,22.8,0,21.6,0,18.9,0,20.7,0,67.1,0
11/4/2003 10:30,22.8,0,21.6,0,18.9,0,20.8,0,65.3,0
11/4/2003 10:45,22.8,0,21.7,0,19,0,21,0,63.6,0
11/4/2003 11:00,22.9,0,21.7,0,19,0,21.2,0,61.8,0
11/4/2003 11:15,22.9,0,21.7,0,19.4,0,21.2,0,61.8,0
11/4/2003 11:30,22.9,0,21.7,0,19.4,0,21.2,0,61.8,0
11/4/2003 11:45,22.9,0,21.7,0,19.4,0,21.2,0,61.8,0
11/4/2003 12:00,22.9,0,21.8,0,19.5,0,21.2,0,61.8,0
11/4/2003 12:15,22.8,0,21.8,0,19.5,0,21.1,0,61.3,0
11/4/2003 12:30,22.8,0,21.9,0,19.5,0,21,0,60.8,0
11/4/2003 12:45,22.7,0,21.9,0,19.6,0,21,0,60.3,0
11/4/2003 13:00,22.7,0,22,0,19.6,0,20.9,0,59.8,0
11/4/2003 13:15,22.6,0,22,0,19.6,0,20.7,0,59.8,0
11/4/2003 13:30,22.6,0,22,0,19.7,0,20.5,0,59.8,0
11/4/2003 13:45,22.6,0,22,0,19.7,0,20.4,0,59.8,0
11/4/2003 14:00,22.6,0,21.9,0,19.7,0,20.2,0,59.8,0
11/4/2003 14:15,22.6,0,21.9,0,19.7,0,20,0,60.3,0
11/4/2003 14:30,22.6,0,21.9,0,19.7,0,19.8,0,60.8,0
11/4/2003 14:45,22.6,0,21.8,0,19.7,0,19.7,0,61.3,0
11/4/2003 15:00,22.6,0,21.8,0,19.7,0,19.5,0,61.8,0
11/4/2003 15:15,22.6,0,21.8,0,19.8,0,19.3,0,61.8,0
11/4/2003 15:30,22.6,0,21.8,0,19.8,0,19.1,0,61.8,0
11/4/2003 15:45,22.6,0,21.7,0,19.8,0,19,0,61.8,0
11/4/2003 16:00,22.6,0,21.7,0,19.8,0,18.8,0,61.8,0
11/4/2003 16:15,22.6,0,21.7,0,19.5,0,18.3,0,62.3,0
11/4/2003 16:30,22.6,0,21.7,0,19.5,0,17.9,0,62.8,0
11/4/2003 16:45,22.6,0,21.6,0,19.5,0,17.4,0,63.3,0
11/4/2003 17:00,22.5,0,21.6,0,19.5,0,17,0,63.8,0
11/4/2003 17:15,22.5,0,21.6,0,19.9,0,16.8,0,65.3,0
11/4/2003 17:30,22.5,0,21.6,0,19.4,0,16.5,0,66.8,0
11/4/2003 17:45,22.5,0,21.5,0,19.4,0,16.3,0,68.3,0
11/4/2003 18:00,22.5,0,21.5,0,19.2,0,16.1,0,69.8,0
11/4/2003 18:15,22.5,0,21.5,0,19,0,16,0,70.1,0
11/4/2003 18:30,22.5,0,21.5,0,19,0,15.8,0,70.3,0
11/4/2003 18:45,22.5,0,21.5,0,19.1,0,15.7,0,70.6,0
11/4/2003 19:00,22.5,0,21.6,0,19.1,0,15.6,0,70.8,0
11/4/2003 19:15,22.4,0,21.7,0,19.1,0,15.5,0,70.6,0
11/4/2003 19:30,22.4,0,21.6,0,19.2,0,15.5,0,70.3,0
11/4/2003 19:45,22.4,0,21.6,0,19.2,0,15.4,0,70.1,0
11/4/2003 20:00,22.4,0,21.5,0,19.2,0,15.4,0,69.8,0
11/4/2003 20:15,22.4,0,21.5,0,19.2,0,15.2,0,70.3,0
11/4/2003 20:30,22.4,0,21.6,0,19.1,0,15.1,0,70.8,0
11/4/2003 20:45,22.3,0,21.6,0,19.1,0,14.9,0,71.3,0
11/4/2003 21:00,22.3,0,21.5,0,19.2,0,14.8,0,71.8,0
11/4/2003 21:15,22.3,0,21.5,0,19.2,0,14.8,0,71.3,0
11/4/2003 21:30,22.3,0,21.4,0,19.2,0,14.8,0,70.8,0
11/4/2003 21:45,22.3,0,21.4,0,19.2,0,14.9,0,70.3,0
11/4/2003 22:00,22.3,0,21.4,0,19.3,0,14.9,0,69.8,0
11/4/2003 22:15,22.3,0,21.4,0,18.9,0,15,0,68.8,0
11/4/2003 22:30,22.3,0,21.4,0,18.9,0,15.2,0,67.8,0
11/4/2003 22:45,22.3,0,21.3,0,18.9,0,15.3,0,66.8,0
11/4/2003 23:00,22.3,0,21.3,0,19,0,15.5,0,65.8,0
11/4/2003 23:15,22.3,0,21.3,0,19,0,15.5,0,65.8,0
11/4/2003 23:30,22.3,0,21.3,0,19,0,15.5,0,65.8,0
11/4/2003 23:45,22.3,0,21.3,0,19.1,0,15.5,0,65.8,0
11/5/2003 0:00,22.3,0,21.3,0,19.1,0,15.5,0,65.8,0
11/5/2003 0:15,22.3,0,21.2,0,19.1,0,15.4,0,66.1,0
11/5/2003 0:30,22.3,0,21.2,0,19.1,0,15.4,0,66.3,0
11/5/2003 0:45,22.3,0,21.2,0,19.2,0,15.3,0,66.6,0
11/5/2003 1:00,22.3,0,21.1,0,19.2,0,15.3,0,66.8,0
11/5/2003 1:15,22.3,0,21.1,0,19,0,15.1,0,68.1,0
11/5/2003 1:30,22.3,0,21.1,0,19,0,15,0,69.3,0
11/5/2003 1:45,22.3,0,21.1,0,19.1,0,14.8,0,70.6,0
11/5/2003 2:00,22.3,0,21.1,0,19.1,0,14.7,0,71.8,0
11/5/2003 2:15,22.3,0,21.1,0,19.2,0,14.6,0,73.1,0
11/5/2003 2:30,22.3,0,21.1,0,19.2,0,14.5,0,74.3,0
11/5/2003 2:45,22.3,0,21.1,0,19.3,0,14.4,0,75.6,0
11/5/2003 3:00,22.3,0,21.1,0,19.4,0,14.3,0,76.8,0
11/5/2003 3:15,22.3,0,21.1,0,19.5,0,14.1,0,77.3,0
11/5/2003 3:30,22.3,0,21,0,19.6,0,14,0,77.8,0
11/5/2003 3:45,22.3,0,21,0,19.7,0,13.8,0,78.3,0
11/5/2003 4:00,22.3,0,21,0,19.8,0,13.7,0,78.8,0
11/5/2003 4:15,22.3,0,21,0,20,0,13.6,0,79.1,0
11/5/2003 4:30,22.3,0,21,0,20.1,0,13.6,0,79.3,0
11/5/2003 4:45,22.3,0,21,0,20.3,0,13.5,0,79.6,0
11/5/2003 5:00,22.3,0,21,0,20.5,0,13.5,0,79.8,0
11/5/2003 5:15,22.3,0,21,0,20.6,0,13.5,0,79.6,0
11/5/2003 5:30,22.3,0,21,0,20.8,0,13.5,0,79.3,0
11/5/2003 5:45,22.3,0,20.9,0,20.9,0,13.5,0,79.1,0
11/5/2003 6:00,22.3,0,20.9,0,21,0,13.5,0,78.8,0
11/5/2003 6:15,22.3,0,20.9,0,21.1,0,13.6,0,78.3,0
11/5/2003 6:30,22.3,0,20.9,0,19.4,0,13.7,0,77.8,0
11/5/2003 6:45,22.3,0,20.9,0,19,0,13.9,0,77.3,0
11/5/2003 7:00,22.2,0,20.9,0,19.1,0,14,0,76.8,0
11/5/2003 7:15,22.2,0,20.9,0,18.7,0,14.2,0,75.3,0
11/5/2003 7:30,22.2,0,20.8,0,18.7,0,14.5,0,73.8,0
11/5/2003 7:45,22.2,0,20.8,0,18.8,0,14.7,0,72.3,0
11/5/2003 8:00,22.1,0,20.8,0,18.8,0,15,0,70.8,0
11/5/2003 8:15,22.1,0,20.8,0,18.8,0,15.3,0,69.3,0
11/5/2003 8:30,22.1,0,20.8,0,18.9,0,15.6,0,67.8,0
11/5/2003 8:45,22.2,0,20.8,0,18.9,0,15.9,0,66.3,0
11/5/2003 9:00,22.2,0,20.9,0,18.9,0,16.2,0,64.8,0
11/5/2003 9:15,22.2,0,20.9,0,19,0,16.3,0,65.1,0
11/5/2003 9:30,22.2,0,20.9,0,19,0,16.4,0,65.3,0
11/5/2003 9:45,22.2,0,20.9,0,19.1,0,16.6,0,65.6,0
11/5/2003 10:00,22.2,0,20.9,0,19.1,0,16.7,0,65.8,0
11/5/2003 10:15,22.2,0,20.9,0,19.1,0,16.9,0,65.6,0
11/5/2003 10:30,22.2,0,20.9,0,19.2,0,17.2,0,65.3,0
11/5/2003 10:45,22.1,0,20.9,0,19.2,0,17.4,0,65.1,0
11/5/2003 11:00,22.1,0,20.9,0,19.2,0,17.7,0,64.8,0
11/5/2003 11:15,22.1,0,20.9,0,19.3,0,18.2,0,64.3,0
11/5/2003 11:30,22.1,0,21,0,19.3,0,18.8,0,63.8,0
11/5/2003 11:45,22.1,0,21,0,19.3,0,19.3,0,63.3,0
11/5/2003 12:00,22.2,0,21,0,19.4,0,19.9,0,62.8,0
11/5/2003 12:15,22.2,0,21,0,19.4,0,20,0,63,0
11/5/2003 12:30,22.2,0,21,0,19.4,0,20.2,0,63.3,0
11/5/2003 12:45,22.1,0,21,0,19.5,0,20.3,0,63.5,0
11/5/2003 13:00,22.1,0,21.1,0,19.3,0,20.5,0,63.8,0
11/5/2003 13:15,22.1,0,21.3,0,19.3,0,20.7,0,64.3,0
11/5/2003 13:30,22.1,0,21.3,0,19.4,0,20.9,0,64.8,0
11/5/2003 13:45,22.1,0,21.3,0,19.4,0,21.1,0,65.3,0
11/5/2003 14:00,22.1,0,21.3,0,19.4,0,21.3,0,65.8,0
11/5/2003 14:15,22.1,0,21.3,0,19.4,0,21.2,0,66.1,0
11/5/2003 14:30,22.1,0,21.3,0,19.1,0,21,0,66.3,0
11/5/2003 14:45,22.1,0,21.3,0,19.2,0,20.9,0,66.6,0
11/5/2003 15:00,22.2,0,21.3,0,19,0,20.8,0,66.8,0
11/5/2003 15:15,22.2,0,21.3,0,19,0,20.8,0,68.1,0
11/5/2003 15:30,22.2,0,21.3,0,19,0,20.8,0,69.3,0
11/5/2003 15:45,22.2,0,21.3,0,19.1,0,20.8,0,70.6,0
11/5/2003 16:00,22.2,0,21.2,0,19.1,0,20.8,0,71.8,0
11/5/2003 16:15,22.2,0,21.2,0,19.1,0,20.8,0,72.3,0
11/5/2003 16:30,22.2,0,21.2,0,19.2,0,20.8,0,72.8,0
11/5/2003 16:45,22.2,0,21.2,0,19.2,0,20.8,0,73.3,0
11/5/2003 17:00,22.2,0,21.2,0,19.2,0,20.8,0,73.8,0
11/5/2003 17:15,22.2,0,21.2,0,19.5,0,20.7,0,73.8,0
11/5/2003 17:30,22.2,0,21.2,0,19.5,0,20.6,0,73.8,0
11/5/2003 17:45,22.2,0,21.2,0,19.5,0,20.5,0,73.8,0
11/5/2003 18:00,22.2,0,21.2,0,19.5,0,20.4,0,73.8,0
11/5/2003 18:15,22.2,0,21.2,0,19.6,0,20.4,0,73.8,0
11/5/2003 18:30,22.2,0,21.2,0,19.6,0,20.4,0,73.8,0
11/5/2003 18:45,22.3,0,21.2,0,19.6,0,20.4,0,73.8,0
11/5/2003 19:00,22.3,0,21.2,0,19.7,0,20.4,0,73.8,0
11/5/2003 19:15,22.3,0,21.2,0,19.7,0,20.4,0,74.3,0
11/5/2003 19:30,22.3,0,21.2,0,19.8,0,20.3,0,74.8,0
11/5/2003 19:45,22.3,0,21.2,0,19.5,0,20.3,0,75.3,0
11/5/2003 20:00,22.3,0,21.2,0,19.5,0,20.3,0,75.8,0
11/5/2003 20:15,22.3,0,21.2,0,19.5,0,20,0,79.1,0
11/5/2003 20:30,22.3,0,21.2,0,19.6,0,19.6,0,82.3,0
11/5/2003 20:45,22.3,0,21.2,0,19.6,0,19.3,0,85.6,0
11/5/2003 21:00,22.3,0,21.2,0,19.6,0,19,0,88.8,0
11/5/2003 21:15,22.3,0,21.2,0,19.7,0,18.7,0,90.1,0